User: anonymous   Login
Location: Newark
(44.2003°N, 3.2583°E)
Time: 11:58:30
(UTC+00:00)
Language:

SR - Orbit

View from above orbital plane
View from above orbital plane
View from above satellite
View from above satellite

Ground track
Ground track

The orbit data is extracted from the following two-line orbital elements,

1    46U 60007B   19288.65062427 +.00000030 +00000-0 +29009-4 0  9990
2    46 066.6918 350.6867 0215584 312.9650 045.3552 14.49249439103494
Epoch (UTC): 15 October 2019 15:36:53
Eccentricity: 0.0215584
inclination: 66.6918°
perigee height: 575 km
apogee height: 881 km
right ascension of ascending node: 350.6867°
argument of perigee: 312.9650°
revolutions per day: 14.49249439
mean anomaly at epoch: 45.3552°
orbit number at epoch: 10349

The dashed part of the orbit path shows where the satellite is in the earth's shadow,  

DLR